This demonstration page uses our WeatherBlox Daily Observations layout. Learn more.

Left ArrowRight Arrow

47.50024, -111.30081

Hourly Observations for May 17, 2022

Temp ( °F °C ) Dew Point ( °F °C ) Humidity (%) Winds ( mph kmh ) Pressure ( in mb ) Visibility ( mi km ) Precip ( " mm )
12:53 am 00:53 Clear 49 9.4 35 1.7 59 59 W 7 11 29.91 1013 10 16 0.00 0.00
1:53 am 01:53 Clear 48 8.9 34 1.1 58 58 W 14 22 29.91 1013 10 16 0.00 0.00
2:53 am 02:53 Clear 46 7.8 34 1.1 63 63 SW 10 17 29.93 1013 10 16 0.00 0.00
3:53 am 03:53 Clear 44 6.7 33 0.6 65 65 SW 10 17 29.94 1014 10 16 0.00 0.00
4:53 am 04:53 Clear 48 8.9 32 0 54 54 SSW 10 17 29.93 1014 10 16 0.00 0.00
5:53 am 05:53 Sunny 45 7.2 32 0 61 61 SW 15 24 29.95 1014 10 16 0.00 0.00
6:53 am 06:53 Sunny 48 8.9 32 0 54 54 SW 12 19 29.97 1015 10 16 0.00 0.00
7:53 am 07:53 Sunny 53 11.7 32 0 45 45 SW 15 24 29.98 1015 10 16 0.00 0.00
8:53 am 08:53 Sunny 58 14.4 29 -1.7 33 33 WSW 17 28 29.98 1015 10 16 0.00 0.00
9:53 am 09:53 Sunny 60 15.6 28 -2.2 30 30 WSW 21 33 29.98 1015 10 16 0.00 0.00
10:53 am 10:53 Sunny 62 16.7 28 -2.2 28 28 WSW 22 35 29.98 1015 10 16 0.00 0.00
11:53 am 11:53 Sunny 63 17.2 27 -2.8 26 26 W 14 22 29.98 1015 10 16 0.00 0.00
12:53 pm 12:53 Sunny 65 18.3 26 -3.3 23 23 W 16 26 29.98 1015 10 16 0.00 0.00
1:53 pm 13:53 Sunny 65 18.3 27 -2.8 24 24 WSW 12 19 29.97 1015 10 16 0.00 0.00
2:53 pm 14:53 Sunny 68 20 27 -2.8 21 21 SW 12 19 29.95 1014 10 16 0.00 0.00
3:53 pm 15:53 Sunny 68 20 25 -3.9 20 20 W 16 26 29.96 1015 10 16 0.00 0.00
4:53 pm 16:53 Mostly Sunny 68 20 24 -4.4 19 19 W 18 30 29.94 1014 10 16 0.00 0.00
5:53 pm 17:53 Sunny 67 19.4 25 -3.9 20 20 WSW 23 37 29.95 1014 10 16 0.00 0.00
6:53 pm 18:53 Sunny 66 18.9 23 -5 19 19 W 16 26 29.93 1014 10 16 0.00 0.00
7:53 pm 19:53 Sunny 64 17.8 23 -5 21 21 W 21 33 29.93 1014 10 16 0.00 0.00
8:53 pm 20:53 Sunny 58 14.4 24 -4.4 27 27 W 15 24 29.96 1015 10 16 0.00 0.00
9:53 pm 21:53 Clear 53 11.7 24 -4.4 32 32 W 10 17 30.00 1016 10 16 0.00 0.00
10:53 pm 22:53 Clear 47 8.3 27 -2.8 46 46 W 7 11 30.02 1017 10 16 0.00 0.00
11:53 pm 23:53 Clear 47 8.3 27 -2.8 46 46 NNW 7 11 30.05 1018 10 16 0.00 0.00

Powered by AerisWeather